N3HCP Weather Reports


time (UTC)temp
F
wind
direction
speed
knots
gust
knots
rain 1hr
in
rain 24hr
in
rain mn
in
humidity
%
barometer
mb
20260504110519 50 88 0.0 0.9 0.00 0.00 0.00 56 1012.7
20260504100511 46 72 0.0 1.7 0.00 0.00 0.00 63 1012.6
20260504081547 48 157 0.0 1.7 0.00 0.00 0.00 60 1013.0
20260504081048 48 148 0.0 1.7 0.00 0.00 0.00 60 1012.9
20260504080546 48 160 0.0 1.7 0.00 0.00 0.00 60 1012.9
20260504050517 49 138 0.0 1.7 0.00 0.00 0.00 58 1013.1
20260504050014 49 234 0.0 0.9 0.00 0.00 0.00 58 1013.1
20260504045515 49 234 0.0 0.9 0.00 0.00 0.00 57 1013.1
20260504045013 49 253 0.0 1.7 0.00 0.00 0.00 57 1013.1
20260504044513 49 243 0.0 1.7 0.00 0.00 0.00 57 1013.1
20260504044012 49 265 0.0 0.9 0.00 0.00 0.00 57 1013.1
20260504043510 50 127 0.0 0.9 0.00 0.00 0.00 57 1013.1
20260504043010 50 132 0.0 2.6 0.00 0.00 0.00 55 1013.2
20260504042509 50 250 0.0 6.1 0.00 0.00 0.00 55 1013.1
20260504042006 50 260 0.0 0.9 0.00 0.00 0.00 56 1013.1
20260504041506 50 272 0.0 5.2 0.00 0.00 0.00 56 1013.2
20260504041005 50 264 0.9 5.2 0.00 0.00 0.00 55 1013.1
20260504040504 50 304 0.0 1.7 0.00 0.00 0.00 56 1013.0
20260504040003 50 235 0.0 4.3 0.00 0.00 0.00 56 1013.0
20260504035503 50 224 0.0 2.6 0.00 0.00 0.00 57 1013.0
20260504035001 49 281 0.0 2.6 0.00 0.00 0.00 56 1012.8
20260504034501 49 266 0.0 0.9 0.00 0.00 0.00 57 1012.8
20260504034100 49 212 0.0 0.9 0.00 0.00 0.00 58 1012.8
20260504033559 49 231 0.0 0.9 0.00 0.00 0.00 58 1012.8
20260504033116 49 197 0.0 0.0 0.00 0.00 0.00 58 1012.7
20260504032559 49 193 0.0 0.0 0.00 0.00 0.00 58 1012.8
20260504032058 49 193 0.0 0.9 0.00 0.00 0.00 58 1012.7
20260504031603 49 231 0.0 0.9 0.00 0.00 0.00 58 1012.7
20260504031100 48 254 0.0 0.9 0.00 0.00 0.00 58 1012.7
20260504030555 48 238 0.0 1.7 0.00 0.00 0.00 59 1012.6
20260504030055 48 231 0.0 1.7 0.00 0.00 0.00 59 1012.6
20260504025554 49 221 0.0 0.0 0.00 0.00 0.00 59 1012.6
20260504025054 49 221 0.0 0.9 0.00 0.00 0.00 58 1012.6
20260504024600 49 221 0.0 0.9 0.00 0.00 0.00 58 1012.6
20260504024052 48 221 0.0 1.7 0.00 0.00 0.00 58 1012.7
20260504023556 47 260 0.0 1.7 0.00 0.00 0.00 60 1012.6
20260504023051 46 254 0.0 0.0 0.00 0.00 0.00 62 1012.7
20260504022551 46 254 0.0 0.0 0.00 0.00 0.00 62 1012.7
20260504022050 46 254 0.0 0.0 0.00 0.00 0.00 62 1012.6
20260504021554 46 254 0.0 0.9 0.00 0.00 0.00 61 1012.7
20260504021052 46 254 0.0 0.0 0.00 0.00 0.00 62 1012.8
20260504020547 46 254 0.0 0.0 0.00 0.00 0.00 62 1012.7
20260504020050 46 254 0.0 0.0 0.00 0.00 0.00 62 1012.7
20260504015546 47 254 0.0 0.0 0.00 0.00 0.00 61 1012.7
20260504015047 47 254 0.0 0.0 0.00 0.00 0.00 62 1012.7
20260504014546 47 254 0.0 0.0 0.00 0.00 0.00 61 1012.7
20260504014046 47 254 0.0 0.0 0.00 0.00 0.00 60 1012.7
20260504013545 47 254 0.0 0.0 0.00 0.00 0.00 60 1012.5
20260504013048 47 254 0.0 0.0 0.00 0.00 0.00 61 1012.6
20260504012546 47 254 0.0 0.0 0.00 0.00 0.00 60 1012.6
20260504012044 47 254 0.0 0.0 0.00 0.00 0.00 59 1012.4
20260504011543 48 254 0.0 0.0 0.00 0.00 0.00 58 1012.5
20260504011040 48 254 0.0 0.0 0.00 0.00 0.00 58 1012.5
20260504010540 48 254 0.0 0.0 0.00 0.00 0.00 58 1012.6
20260504010040 48 254 0.0 0.0 0.00 0.00 0.00 59 1012.5
20260504005539 48 254 0.0 0.0 0.00 0.00 0.00 59 1012.5
20260504005039 49 254 0.0 0.0 0.00 0.00 0.00 58 1012.5
20260504004546 49 254 0.0 0.0 0.00 0.00 0.00 56 1012.5
20260504004037 50 254 0.0 0.0 0.00 0.00 0.00 55 1012.4
20260504003538 51 254 0.0 0.0 0.00 0.00 0.00 53 1012.4
20260504003036 51 254 0.0 0.0 0.00 0.00 0.00 52 1012.2
20260504002536 52 254 0.0 0.0 0.00 0.00 0.00 53 1012.2
20260504002037 53 254 0.0 0.9 0.00 0.00 0.00 51 1012.1
20260504001635 53 254 0.0 0.9 0.00 0.00 0.00 51 1012.0
20260504001034 54 226 0.0 2.6 0.00 0.00 0.00 50 1011.9
20260504000534 54 221 0.0 2.6 0.00 0.00 0.00 48 1011.9
20260504000034 55 238 0.0 3.5 0.00 0.00 0.00 48 1011.8
20260503235532 55 231 0.0 5.2 0.00 0.00 0.00 47 1011.7
20260503235032 56 255 0.0 3.5 0.00 0.00 0.00 47 1011.8
20260503234531 56 257 0.0 2.6 0.00 0.00 0.00 47 1011.7
20260503234031 57 236 0.0 4.3 0.00 0.00 0.00 46 1011.7
20260503233530 57 266 1.7 5.2 0.00 0.00 0.00 44 1011.5
20260503233031 57 260 0.9 7.0 0.00 0.00 0.00 44 1011.5
20260503232530 58 204 1.7 7.8 0.00 0.00 0.00 43 1011.5
20260503232027 58 259 2.6 7.8 0.00 0.00 0.00 43 1011.5
20260503231527 58 307 3.5 8.7 0.00 0.00 0.00 43 1011.6
20260503231026 58 263 2.6 8.7 0.00 0.00 0.00 44 1011.6
20260503230527 58 246 1.7 6.1 0.00 0.00 0.00 42 1011.4
20260503230032 59 249 0.9 7.8 0.00 0.00 0.00 43 1011.4
20260503225524 59 256 2.6 7.8 0.00 0.00 0.00 41 1011.4
20260503225023 59 246 1.7 7.0 0.00 0.00 0.00 44 1011.4
20260503224523 59 270 1.7 7.8 0.00 0.00 0.00 44 1011.3
20260503224021 59 221 2.6 7.8 0.00 0.00 0.00 43 1011.4
20260503223524 60 226 3.5 7.8 0.00 0.00 0.00 41 1011.3
20260503223019 60 259 1.7 7.8 0.00 0.00 0.00 41 1011.3
20260503222519 60 255 1.7 7.8 0.00 0.00 0.00 42 1011.2
20260503222018 60 253 2.6 8.7 0.00 0.00 0.00 41 1011.3
20260503221517 60 238 2.6 8.7 0.00 0.00 0.00 42 1011.4
20260503221017 60 243 2.6 7.8 0.00 0.00 0.00 43 1011.2
20260503220516 60 254 2.6 7.8 0.00 0.00 0.00 42 1011.3
20260503220016 60 222 2.6 9.6 0.00 0.00 0.00 41 1011.3
20260503215514 60 274 0.9 8.7 0.00 0.00 0.00 42 1011.5
20260503215014 60 203 4.3 8.7 0.00 0.00 0.00 40 1011.3
20260503214515 60 303 1.7 9.6 0.00 0.00 0.00 42 1011.4
20260503214116 59 358 3.5 12.2 0.00 0.00 0.00 41 1011.3
20260503213512 60 248 3.5 12.2 0.00 0.00 0.00 42 1011.3
20260503213016 59 252 2.6 8.7 0.00 0.00 0.00 41 1011.2
20260503212509 59 252 2.6 10.4 0.00 0.00 0.00 42 1011.2
20260503212010 59 258 3.5 10.4 0.00 0.00 0.00 42 1011.2
20260503211508 59 278 3.5 10.4 0.00 0.00 0.00 42 1011.2
20260503211007 59 243 2.6 11.3 0.00 0.00 0.00 43 1011.2
20260503210507 59 243 4.3 11.3 0.00 0.00 0.00 41 1011.2
20260503210007 59 235 2.6 12.2 0.00 0.00 0.00 43 1011.3
20260503205509 59 232 4.3 12.2 0.00 0.00 0.00 41 1011.2
20260503205006 59 271 2.6 7.0 0.00 0.00 0.00 39 1011.2
20260503204506 60 237 3.5 7.0 0.00 0.00 0.00 43 1011.3
20260503204005 60 245 1.7 9.6 0.00 0.00 0.00 41 1011.3
20260503203506 60 226 3.5 9.6 0.00 0.00 0.00 41 1011.3
20260503203004 60 266 2.6 7.8 0.00 0.00 0.00 43 1011.3
20260503202502 60 279 2.6 8.7 0.00 0.00 0.00 41 1011.3
20260503202003 60 157 3.5 10.4 0.00 0.00 0.00 40 1011.4
20260503201601 60 208 2.6 10.4 0.00 0.00 0.00 43 1011.4
20260503201101 59 219 3.5 9.6 0.00 0.00 0.00 42 1011.5
20260503200558 59 240 4.3 13.0 0.00 0.00 0.00 39 1011.6
20260503200058 59 172 1.7 13.0 0.00 0.00 0.00 41 1011.7
20260503195557 59 233 4.3 10.4 0.00 0.00 0.00 40 1011.7
20260503195056 59 217 1.7 6.1 0.00 0.00 0.00 40 1011.7
20260503194555 59 289 1.7 9.6 0.00 0.00 0.00 44 1011.7
20260503194055 58 198 1.7 7.8 0.00 0.00 0.00 43 1011.8
20260503193554 58 263 1.7 7.0 0.00 0.00 0.00 41 1012.0
20260503193057 57 255 2.6 7.8 0.00 0.00 0.00 42 1012.2
20260503192551 58 212 2.6 10.4 0.00 0.00 0.00 41 1012.2
20260503192050 57 205 4.3 10.4 0.00 0.00 0.00 41 1012.2
20260503191550 59 297 3.5 8.7 0.00 0.00 0.00 41 1012.1
20260503191048 58 237 1.7 10.4 0.00 0.00 0.00 42 1012.2
20260503190648 58 224 4.3 10.4 0.00 0.00 0.00 41 1012.2
20260503190051 58 262 4.3 10.4 0.00 0.00 0.00 41 1012.4
20260503185543 58 252 2.6 12.2 0.00 0.00 0.00 44 1012.3
20260503185143 58 274 2.6 12.2 0.00 0.00 0.00 46 1012.4
20260503184555 57 242 3.5 8.7 0.00 0.00 0.00 44 1012.6
20260503184042 57 231 2.6 8.7 0.00 0.00 0.00 43 1012.6
20260503183540 57 236 2.6 8.7 0.00 0.00 0.00 43 1012.7
20260503183041 57 278 2.6 9.6 0.00 0.00 0.00 44 1012.7
20260503182543 56 244 3.5 9.6 0.00 0.00 0.00 44 1012.8
20260503182039 56 242 2.6 10.4 0.00 0.00 0.00 47 1012.6
20260503181538 56 260 4.3 10.4 0.00 0.00 0.00 42 1012.9
20260503181035 55 249 2.6 8.7 0.00 0.00 0.00 45 1012.8
20260503180634 55 217 3.5 8.7 0.00 0.00 0.00 44 1012.9
20260503180033 55 269 1.7 10.4 0.00 0.00 0.00 47 1012.9
20260503175531 55 268 1.7 10.4 0.00 0.00 0.00 44 1012.9
20260503175031 56 223 4.3 10.4 0.00 0.00 0.00 43 1012.9
20260503174539 56 270 1.7 8.7 0.00 0.00 0.00 45 1013.0
20260503174029 56 269 2.6 10.4 0.00 0.00 0.00 45 1013.1
20260503173526 55 264 2.6 10.4 0.00 0.00 0.00 46 1013.0
20260503173023 55 265 1.7 7.8 0.00 0.00 0.00 47 1012.9
20260503172523 55 216 3.5 7.8 0.00 0.00 0.00 44 1013.0
20260503172022 54 288 3.5 9.6 0.00 0.00 0.00 47 1013.0
20260503171520 54 222 3.5 7.8 0.00 0.00 0.00 47 1013.1
20260503171019 53 271 3.5 9.6 0.00 0.00 0.00 47 1013.0
20260503170519 53 178 3.5 11.3 0.00 0.00 0.00 48 1013.2
20260503150551 50 257 1.7 7.8 0.00 0.00 0.00 48 1013.9
20260503131027 47 271 3.5 10.4 0.00 0.00 0.00 61 1014.1
20260503130525 46 314 1.7 7.0 0.00 0.00 0.00 63 1014.1